Location: Schommer Observatory
(40.5200°N, 74.4500°W)
Time: 06:26:51
(UTC-04:00)

Tiangong 2 - Visible Passes

Search period start: 23 March 2017 00:00
Search period end: 02 April 2017 00:00
Orbit: 374 x 384 km, 42.8° (Epoch: 21 March)

Date Brightness Start Highest point End Pass type
(mag) Time Alt. Az. Time Alt. Az. Time Alt. Az.
23 Mar 1.3 05:25:36 47° NW 05:26:15 61° N 05:29:21 10° E visible
24 Mar 4.1 04:27:08 16° ENE 04:27:08 16° ENE 04:27:55 10° E visible
24 Mar 1.0 05:59:15 17° WNW 06:01:33 73° SSW 06:04:41 10° ESE visible
25 Mar 1.8 05:00:51 51° E 05:00:51 51° E 05:03:21 10° E visible
26 Mar 1.3 05:34:41 38° WSW 05:35:25 47° SSW 05:38:26 10° SE visible
27 Mar 3.8 04:36:31 15° ESE 04:36:31 15° ESE 04:37:13 10° ESE visible
27 Mar 2.9 06:08:39 12° WSW 06:10:23 17° SW 06:12:30 10° S visible
28 Mar 3.0 05:10:40 20° SSE 05:10:40 20° SSE 05:11:57 10° SE visible
01 Apr 3.5 20:47:01 10° S 20:47:19 11° S 20:47:19 11° S visible
